Time,TemperatureF,DewpointF,PressureIn,WindDirection,WindDirectionDegrees,WindSpeedMPH,WindSpeedGustMPH,Humidity,HourlyPrecipIn,Conditions,Clouds,dailyrainin,SolarRadiationWatts/m^2,SoftwareType,DateUTC
2013-08-20 00:01:00,70.3,65.2,30.00,NW,315,0.0,9.0,84,0.00,,CLR,0.01,0.00,VWS V14.01,2013-08-20 04:01:00,
2013-08-20 00:06:00,70.4,65.3,30.00,NW,326,0.0,0.0,84,0.00,,CLR,0.00,0.00,VWS V14.01,2013-08-20 04:06:00,
2013-08-20 00:11:00,70.4,65.0,30.00,NNW,340,0.0,4.0,83,0.00,,CLR,0.00,0.00,VWS V14.01,2013-08-20 04:11:00,
2013-08-20 00:16:00,70.3,64.9,30.00,NW,313,0.0,4.0,83,0.00,,CLR,0.00,0.00,VWS V14.01,2013-08-20 04:16:00,
2013-08-20 00:21:00,70.3,64.9,30.00,NW,323,3.0,3.0,83,0.00,,CLR,0.00,0.00,VWS V14.01,2013-08-20 04:21:00,
2013-08-20 00:26:00,70.2,64.8,30.00,North,360,3.0,4.0,83,0.00,,CLR,0.00,0.00,VWS V14.01,2013-08-20 04:26:00,
2013-08-20 00:31:00,70.2,64.8,30.00,NNW,344,0.0,5.0,83,0.00,,CLR,0.00,0.00,VWS V14.01,2013-08-20 04:31:00,
2013-08-20 00:36:00,70.2,64.8,30.00,NNW,344,0.0,0.0,83,0.00,,CLR,0.00,0.00,VWS V14.01,2013-08-20 04:36:00,
2013-08-20 00:41:00,70.2,65.1,30.00,WNW,302,0.0,3.0,84,0.00,,CLR,0.00,0.00,VWS V14.01,2013-08-20 04:41:00,
2013-08-20 00:46:00,70.2,65.1,30.00,North,351,0.0,5.0,84,0.00,,CLR,0.00,0.00,VWS V14.01,2013-08-20 04:46:00,
2013-08-20 00:51:00,70.2,65.1,29.99,NW,324,0.0,4.0,84,0.00,,CLR,0.00,0.00,VWS V14.01,2013-08-20 04:51:00,
2013-08-20 00:56:00,70.2,65.1,29.99,NNW,344,1.0,4.0,84,0.00,,CLR,0.00,0.00,VWS V14.01,2013-08-20 04:56:00,
2013-08-20 01:01:00,70.2,65.5,29.99,WNW,302,3.0,5.0,85,0.00,,CLR,0.00,0.00,VWS V14.01,2013-08-20 05:01:00,
2013-08-20 01:06:00,70.1,65.4,30.00,NNW,332,2.0,6.0,85,0.00,,CLR,0.00,0.00,VWS V14.01,2013-08-20 05:06:00,
2013-08-20 01:11:00,70.1,65.4,29.99,NW,322,0.0,0.0,85,0.00,,CLR,0.00,0.00,VWS V14.01,2013-08-20 05:11:00,
2013-08-20 01:16:00,70.1,65.4,29.99,NNW,337,5.0,8.0,85,0.00,,CLR,0.00,0.00,VWS V14.01,2013-08-20 05:16:00,
2013-08-20 01:21:00,70.2,65.5,29.99,North,360,3.0,6.0,85,0.00,,CLR,0.00,0.00,VWS V14.01,2013-08-20 05:21:00,
2013-08-20 01:26:00,70.2,65.5,29.99,NNW,328,3.0,6.0,85,0.00,,CLR,0.00,0.00,VWS V14.01,2013-08-20 05:26:00,
2013-08-20 01:31:00,70.2,65.5,29.99,North,350,1.0,9.0,85,0.00,,CLR,0.00,0.00,VWS V14.01,2013-08-20 05:31:00,
2013-08-20 01:36:00,70.2,65.5,29.99,WNW,294,11.0,11.0,85,0.00,,CLR,0.00,0.00,VWS V14.01,2013-08-20 05:36:00,
2013-08-20 01:41:00,70.1,65.7,29.99,NNW,348,0.0,0.0,86,0.00,,CLR,0.00,0.00,VWS V14.01,2013-08-20 05:41:00,
2013-08-20 01:46:00,70.0,65.6,29.99,NNW,329,0.0,3.0,86,0.00,,CLR,0.00,0.00,VWS V14.01,2013-08-20 05:46:00,
2013-08-20 01:51:00,69.9,65.5,29.99,NNW,334,0.0,3.0,86,0.00,,CLR,0.00,0.00,VWS V14.01,2013-08-20 05:51:00,
2013-08-20 01:56:00,69.8,65.8,29.99,North,5,0.0,3.0,87,0.00,,CLR,0.00,0.00,VWS V14.01,2013-08-20 05:56:00,
2013-08-20 02:01:00,69.9,65.9,29.99,NNW,340,0.0,0.0,87,0.00,,CLR,0.00,0.00,VWS V14.01,2013-08-20 06:01:00,
2013-08-20 02:06:00,69.9,65.9,29.99,North,349,0.0,0.0,87,0.00,,CLR,0.00,0.00,VWS V14.01,2013-08-20 06:06:00,
2013-08-20 02:11:00,69.9,66.2,29.99,North,360,1.0,5.0,88,0.00,,CLR,0.00,0.00,VWS V14.01,2013-08-20 06:11:00,
2013-08-20 02:16:00,69.8,66.1,29.99,NNW,346,5.0,5.0,88,0.00,,CLR,0.00,0.00,VWS V14.01,2013-08-20 06:16:00,
2013-08-20 02:21:00,69.8,66.1,29.99,NNW,348,6.0,6.0,88,0.00,,CLR,0.00,0.00,VWS V14.01,2013-08-20 06:21:00,
2013-08-20 02:26:00,69.8,66.1,29.99,NNW,335,11.0,11.0,88,0.00,,CLR,0.00,0.00,VWS V14.01,2013-08-20 06:26:00,
2013-08-20 02:31:00,69.8,66.4,29.99,NNW,343,8.0,9.0,89,0.00,,CLR,0.00,0.00,VWS V14.01,2013-08-20 06:31:00,
2013-08-20 02:36:00,69.7,66.3,29.99,NNE,17,1.0,1.0,89,0.00,,CLR,0.00,0.00,VWS V14.01,2013-08-20 06:36:00,
2013-08-20 02:41:00,69.7,66.3,29.99,NNW,346,1.0,3.0,89,0.00,,CLR,0.00,0.00,VWS V14.01,2013-08-20 06:41:00,
2013-08-20 02:46:00,69.7,66.3,29.99,NNW,333,5.0,11.0,89,0.00,,CLR,0.00,0.00,VWS V14.01,2013-08-20 06:46:00,
2013-08-20 02:51:00,69.6,66.2,29.99,NNE,16,0.0,0.0,89,0.00,,CLR,0.00,0.00,VWS V14.01,2013-08-20 06:51:00,
2013-08-20 02:55:00,69.5,66.1,29.99,NNW,338,3.0,3.0,89,0.00,,CLR,0.00,0.00,VWS V14.01,2013-08-20 06:55:00,
2013-08-20 03:00:00,69.5,66.1,29.99,North,360,2.0,3.0,89,0.00,,CLR,0.00,0.00,VWS V14.01,2013-08-20 07:00:00,
2013-08-20 03:05:00,69.4,66.0,29.99,NNW,348,0.0,10.0,89,0.00,,CLR,0.00,0.00,VWS V14.01,2013-08-20 07:05:00,
2013-08-20 03:10:00,69.4,66.0,29.99,NNW,327,4.0,11.0,89,0.00,,CLR,0.00,0.00,VWS V14.01,2013-08-20 07:10:00,
2013-08-20 03:15:00,69.5,66.1,29.99,NNW,341,5.0,11.0,89,0.00,,CLR,0.00,0.00,VWS V14.01,2013-08-20 07:15:00,
2013-08-20 03:20:00,69.3,65.9,29.99,NNW,338,5.0,8.0,89,0.00,,CLR,0.00,0.00,VWS V14.01,2013-08-20 07:20:00,
2013-08-20 03:25:00,69.2,65.8,29.99,NNW,345,4.0,8.0,89,0.00,,CLR,0.00,0.00,VWS V14.01,2013-08-20 07:25:00,
2013-08-20 03:30:00,69.1,65.7,30.00,NNW,348,2.0,8.0,89,0.00,,CLR,0.00,0.00,VWS V14.01,2013-08-20 07:30:00,
2013-08-20 03:35:00,69.1,65.7,29.99,North,355,0.0,12.0,89,0.00,,CLR,0.00,0.00,VWS V14.01,2013-08-20 07:35:00,
2013-08-20 03:40:00,69.0,65.6,30.00,NNW,338,4.0,8.0,89,0.00,,CLR,0.00,0.00,VWS V14.01,2013-08-20 07:40:00,
2013-08-20 03:45:00,68.9,65.5,30.00,North,355,3.0,9.0,89,0.00,,CLR,0.00,0.00,VWS V14.01,2013-08-20 07:45:00,
2013-08-20 03:50:00,68.8,65.4,30.00,NNW,345,4.0,9.0,89,0.00,,CLR,0.00,0.00,VWS V14.01,2013-08-20 07:50:00,
2013-08-20 03:55:00,68.7,65.3,30.00,NNW,346,0.0,9.0,89,0.00,,CLR,0.00,0.00,VWS V14.01,2013-08-20 07:55:00,
2013-08-20 04:00:00,68.6,65.6,30.00,North,355,0.0,6.0,90,0.00,,CLR,0.00,0.00,VWS V14.01,2013-08-20 08:00:00,
2013-08-20 04:05:00,68.5,65.5,30.00,NNW,341,6.0,9.0,90,0.00,,CLR,0.00,0.00,VWS V14.01,2013-08-20 08:05:00,
2013-08-20 04:10:00,68.5,65.5,30.00,NNW,348,2.0,9.0,90,0.00,,CLR,0.00,0.00,VWS V14.01,2013-08-20 08:10:00,
2013-08-20 04:15:00,68.4,65.4,30.00,NNW,337,4.0,6.0,90,0.00,,CLR,0.00,0.00,VWS V14.01,2013-08-20 08:15:00,
2013-08-20 04:20:00,68.4,65.4,30.00,North,355,2.0,8.0,90,0.00,,CLR,0.00,0.00,VWS V14.01,2013-08-20 08:20:00,
2013-08-20 04:25:00,68.4,65.4,30.00,NNW,345,1.0,8.0,90,0.00,,CLR,0.00,0.00,VWS V14.01,2013-08-20 08:25:00,
2013-08-20 04:30:00,68.3,65.3,30.00,North,355,0.0,6.0,90,0.00,,CLR,0.00,0.00,VWS V14.01,2013-08-20 08:30:00,
2013-08-20 04:35:00,68.2,65.2,30.00,NNW,344,4.0,9.0,90,0.00,,CLR,0.00,0.00,VWS V14.01,2013-08-20 08:35:00,
2013-08-20 04:40:00,68.2,65.2,30.00,North,355,3.0,8.0,90,0.00,,CLR,0.00,0.00,VWS V14.01,2013-08-20 08:40:00,
2013-08-20 04:45:00,68.2,65.2,30.00,NNW,344,0.0,9.0,90,0.00,,CLR,0.00,0.00,VWS V14.01,2013-08-20 08:45:00,
2013-08-20 04:50:00,68.1,65.1,30.00,North,355,3.0,6.0,90,0.00,,CLR,0.00,0.00,VWS V14.01,2013-08-20 08:50:00,
2013-08-20 04:55:00,68.0,65.0,30.00,North,355,5.0,6.0,90,0.00,,CLR,0.00,0.00,VWS V14.01,2013-08-20 08:55:00,
2013-08-20 05:00:00,68.0,65.0,30.01,North,350,0.0,4.0,90,0.00,,CLR,0.00,0.00,VWS V14.01,2013-08-20 09:00:00,
2013-08-20 05:05:00,67.8,65.1,30.00,NNW,342,0.0,4.0,91,0.00,,CLR,0.00,0.00,VWS V14.01,2013-08-20 09:05:00,
2013-08-20 05:10:00,67.7,65.0,30.01,NNW,342,0.0,5.0,91,0.00,,CLR,0.00,0.00,VWS V14.01,2013-08-20 09:10:00,
2013-08-20 05:15:00,67.6,64.9,30.01,NNW,344,0.0,3.0,91,0.00,,CLR,0.00,0.00,VWS V14.01,2013-08-20 09:15:00,
2013-08-20 05:20:00,67.6,64.9,30.01,NNW,345,5.0,5.0,91,0.00,,CLR,0.00,0.00,VWS V14.01,2013-08-20 09:20:00,
2013-08-20 05:25:00,67.7,65.0,30.01,NNW,348,4.0,5.0,91,0.00,,CLR,0.00,0.00,VWS V14.01,2013-08-20 09:25:00,
2013-08-20 05:30:00,67.7,65.0,30.01,NNW,348,2.0,5.0,91,0.00,,CLR,0.00,0.00,VWS V14.01,2013-08-20 09:30:00,
2013-08-20 05:35:00,67.6,64.9,30.01,NNW,348,0.0,5.0,91,0.00,,CLR,0.00,0.00,VWS V14.01,2013-08-20 09:35:00,
2013-08-20 05:40:00,67.6,64.6,30.01,North,350,3.0,6.0,90,0.00,,CLR,0.00,0.00,VWS V14.01,2013-08-20 09:40:00,
2013-08-20 05:45:00,67.6,64.6,30.01,North,355,1.0,5.0,90,0.00,,CLR,0.00,0.00,VWS V14.01,2013-08-20 09:45:00,
2013-08-20 05:50:00,67.6,64.6,30.01,North,355,1.0,4.0,90,0.00,,CLR,0.00,0.00,VWS V14.01,2013-08-20 09:50:00,
2013-08-20 05:55:00,67.5,64.5,30.01,North,355,3.0,5.0,90,0.00,,CLR,0.00,0.00,VWS V14.01,2013-08-20 09:55:00,
2013-08-20 06:00:00,67.5,64.5,30.02,North,351,0.0,5.0,90,0.00,,CLR,0.00,0.00,VWS V14.01,2013-08-20 10:00:00,
2013-08-20 06:05:00,67.4,64.4,30.02,North,351,0.0,1.0,90,0.00,,,0.00,5.00,VWS V14.01,2013-08-20 10:05:00,
2013-08-20 06:10:00,67.2,64.5,30.02,North,350,1.0,4.0,91,0.00,,,0.00,7.00,VWS V14.01,2013-08-20 10:10:00,
2013-08-20 06:15:00,67.2,64.5,30.02,North,355,0.0,4.0,91,0.00,,,0.00,11.00,VWS V14.01,2013-08-20 10:15:00,
2013-08-20 06:20:00,67.2,64.5,30.03,North,355,2.0,5.0,91,0.00,,,0.00,14.00,VWS V14.01,2013-08-20 10:20:00,
2013-08-20 06:25:00,67.3,64.6,30.03,North,355,0.0,5.0,91,0.00,,,0.00,18.00,VWS V14.01,2013-08-20 10:25:00,
2013-08-20 06:30:00,67.3,64.6,30.03,North,355,0.0,0.0,91,0.00,,,0.00,23.00,VWS V14.01,2013-08-20 10:30:00,
2013-08-20 06:35:00,67.5,64.8,30.03,North,355,0.0,0.0,91,0.00,,,0.00,26.00,VWS V14.01,2013-08-20 10:35:00,
2013-08-20 06:40:00,67.7,65.0,30.03,North,355,0.0,0.0,91,0.00,,,0.00,32.00,VWS V14.01,2013-08-20 10:40:00,
2013-08-20 06:45:00,67.8,65.1,30.03,North,355,0.0,0.0,91,0.00,,,0.00,39.00,VWS V14.01,2013-08-20 10:45:00,
2013-08-20 06:50:00,68.1,65.1,30.03,North,351,0.0,4.0,90,0.00,,,0.00,46.00,VWS V14.01,2013-08-20 10:50:00,
2013-08-20 06:55:00,68.3,65.3,30.03,North,350,0.0,0.0,90,0.00,,,0.00,54.00,VWS V14.01,2013-08-20 10:55:00,
2013-08-20 07:00:00,68.6,65.2,30.04,North,351,0.0,2.0,89,0.00,,,0.00,65.00,VWS V14.01,2013-08-20 11:00:00,
2013-08-20 07:05:00,68.9,65.2,30.04,North,351,0.0,0.0,88,0.00,,,0.00,77.00,VWS V14.01,2013-08-20 11:05:00,
2013-08-20 07:10:00,69.2,65.2,30.04,North,350,0.0,4.0,87,0.00,,,0.00,88.00,VWS V14.01,2013-08-20 11:10:00,
2013-08-20 07:15:00,69.4,65.4,30.04,North,350,1.0,3.0,87,0.00,,,0.00,98.00,VWS V14.01,2013-08-20 11:15:00,
2013-08-20 07:20:00,69.7,65.3,30.04,NNW,347,4.0,6.0,86,0.00,,,0.00,114.00,VWS V14.01,2013-08-20 11:20:00,
2013-08-20 07:25:00,70.0,65.6,30.05,North,355,0.0,6.0,86,0.00,,,0.00,134.00,VWS V14.01,2013-08-20 11:25:00,
2013-08-20 07:30:00,70.2,65.8,30.05,NNW,347,0.0,9.0,86,0.00,,,0.00,151.00,VWS V14.01,2013-08-20 11:30:00,
2013-08-20 07:35:00,70.6,66.2,30.05,NNW,346,0.0,5.0,86,0.00,,,0.00,167.00,VWS V14.01,2013-08-20 11:35:00,
2013-08-20 07:40:00,70.8,66.4,30.05,NNW,334,0.0,8.0,86,0.00,,,0.00,179.00,VWS V14.01,2013-08-20 11:40:00,
2013-08-20 07:45:00,71.1,66.4,30.05,NNW,340,0.0,5.0,85,0.00,,,0.00,197.00,VWS V14.01,2013-08-20 11:45:00,
2013-08-20 07:50:00,71.2,66.1,30.05,NNW,338,0.0,6.0,84,0.00,,,0.00,223.00,VWS V14.01,2013-08-20 11:50:00,
2013-08-20 07:55:00,71.3,66.2,30.05,NNW,340,0.0,10.0,84,0.00,,,0.00,237.00,VWS V14.01,2013-08-20 11:55:00,
2013-08-20 08:00:00,71.7,66.6,30.06,NNW,339,5.0,5.0,84,0.00,,,0.00,251.00,VWS V14.01,2013-08-20 12:00:00,
2013-08-20 08:05:00,71.9,66.5,30.06,NNW,338,6.0,6.0,83,0.00,,,0.00,267.00,VWS V14.01,2013-08-20 12:05:00,
2013-08-20 08:10:00,71.9,66.1,30.06,North,355,2.0,8.0,82,0.00,,,0.00,285.00,VWS V14.01,2013-08-20 12:10:00,
2013-08-20 08:15:00,72.3,66.5,30.06,NNW,346,0.0,6.0,82,0.00,,,0.00,304.00,VWS V14.01,2013-08-20 12:15:00,
2013-08-20 08:20:00,72.6,66.8,30.06,North,355,3.0,8.0,82,0.00,,,0.00,322.00,VWS V14.01,2013-08-20 12:20:00,
2013-08-20 08:24:00,72.6,65.7,30.06,North,360,0.0,11.0,79,0.00,,,0.00,339.00,VWS V14.01,2013-08-20 12:24:00,
2013-08-20 08:29:00,72.8,65.6,30.06,NNW,334,2.0,9.0,78,0.00,,,0.00,357.00,VWS V14.01,2013-08-20 12:29:00,
2013-08-20 08:34:00,73.1,64.7,30.05,NNW,333,5.0,10.0,75,0.00,,,0.00,373.00,VWS V14.01,2013-08-20 12:34:00,
2013-08-20 08:39:00,73.6,65.6,30.06,NNW,340,8.0,9.0,76,0.00,,,0.00,385.00,VWS V14.01,2013-08-20 12:39:00,
2013-08-20 08:44:00,74.2,65.0,30.06,North,350,1.0,10.0,73,0.00,,,0.00,401.00,VWS V14.01,2013-08-20 12:44:00,
2013-08-20 08:49:00,74.1,64.9,30.06,NNE,12,0.0,9.0,73,0.00,,,0.00,410.00,VWS V14.01,2013-08-20 12:49:00,
2013-08-20 08:54:00,74.5,64.9,30.06,NNW,330,6.0,8.0,72,0.00,,,0.00,425.00,VWS V14.01,2013-08-20 12:54:00,
2013-08-20 08:59:00,74.5,64.5,30.06,North,360,0.0,10.0,71,0.00,,,0.00,434.00,VWS V14.01,2013-08-20 12:59:00,
2013-08-20 09:04:00,74.8,64.8,30.06,North,355,2.0,6.0,71,0.00,,,0.00,448.00,VWS V14.01,2013-08-20 13:04:00,
2013-08-20 09:09:00,75.3,65.7,30.06,NNW,339,5.0,9.0,72,0.00,,,0.00,462.00,VWS V14.01,2013-08-20 13:09:00,
2013-08-20 09:14:00,75.4,64.5,30.07,NW,318,4.0,12.0,69,0.00,,,0.00,483.00,VWS V14.01,2013-08-20 13:14:00,
2013-08-20 09:19:00,75.6,65.1,30.07,NNW,329,3.0,12.0,70,0.00,,,0.00,504.00,VWS V14.01,2013-08-20 13:19:00,
2013-08-20 09:24:00,75.7,65.2,30.06,NNW,330,0.0,8.0,70,0.00,,,0.00,515.00,VWS V14.01,2013-08-20 13:24:00,
2013-08-20 09:29:00,75.9,65.0,30.07,NW,324,4.0,9.0,69,0.00,,,0.00,526.00,VWS V14.01,2013-08-20 13:29:00,
2013-08-20 09:34:00,76.0,65.5,30.07,North,350,0.0,8.0,70,0.00,,,0.00,541.00,VWS V14.01,2013-08-20 13:34:00,
2013-08-20 09:39:00,76.4,64.6,30.07,NNE,12,2.0,11.0,67,0.00,,,0.00,554.00,VWS V14.01,2013-08-20 13:39:00,
2013-08-20 09:44:00,75.8,65.3,30.07,NNE,13,1.0,11.0,70,0.00,,,0.00,564.00,VWS V14.01,2013-08-20 13:44:00,
2013-08-20 09:49:00,75.9,65.0,30.07,NW,310,3.0,9.0,69,0.00,,,0.00,575.00,VWS V14.01,2013-08-20 13:49:00,
2013-08-20 09:54:00,75.7,65.2,30.07,NNW,342,2.0,10.0,70,0.00,,,0.00,591.00,VWS V14.01,2013-08-20 13:54:00,
2013-08-20 09:59:00,76.2,65.7,30.07,NNW,336,0.0,8.0,70,0.00,,,0.00,608.00,VWS V14.01,2013-08-20 13:59:00,
2013-08-20 10:04:00,76.4,65.5,30.07,North,355,4.0,8.0,69,0.00,,CLR,0.00,622.00,VWS V14.01,2013-08-20 14:04:00,
2013-08-20 10:09:00,76.6,64.8,30.07,NNW,344,0.0,8.0,67,0.00,,CLR,0.00,631.00,VWS V14.01,2013-08-20 14:09:00,
2013-08-20 10:14:00,76.9,65.1,30.07,North,5,0.0,8.0,67,0.00,,CLR,0.00,649.00,VWS V14.01,2013-08-20 14:14:00,
2013-08-20 10:19:00,76.8,64.2,30.07,North,360,4.0,9.0,65,0.00,,CLR,0.00,664.00,VWS V14.01,2013-08-20 14:19:00,
2013-08-20 10:24:00,77.1,64.4,30.07,North,350,6.0,9.0,65,0.00,,CLR,0.00,680.00,VWS V14.01,2013-08-20 14:24:00,
2013-08-20 10:29:00,77.6,64.0,30.07,North,355,0.0,8.0,63,0.00,,CLR,0.00,693.00,VWS V14.01,2013-08-20 14:29:00,
2013-08-20 10:34:00,77.5,64.8,30.08,NNW,345,2.0,9.0,65,0.00,,CLR,0.00,703.00,VWS V14.01,2013-08-20 14:34:00,
2013-08-20 10:39:00,77.0,65.2,30.08,NNW,344,0.0,12.0,67,0.00,,CLR,0.00,710.00,VWS V14.01,2013-08-20 14:39:00,
2013-08-20 10:44:00,77.5,65.7,30.08,NNW,327,4.0,9.0,67,0.00,,CLR,0.00,722.00,VWS V14.01,2013-08-20 14:44:00,
2013-08-20 10:49:00,78.1,65.8,30.07,NNW,346,0.0,8.0,66,0.00,,CLR,0.00,731.00,VWS V14.01,2013-08-20 14:49:00,
2013-08-20 10:54:00,77.9,66.1,30.07,North,360,0.0,11.0,67,0.00,,CLR,0.00,742.00,VWS V14.01,2013-08-20 14:54:00,
2013-08-20 10:59:00,78.2,65.9,30.07,North,349,3.0,8.0,66,0.00,,CLR,0.00,752.00,VWS V14.01,2013-08-20 14:59:00,
2013-08-20 11:04:00,77.9,66.5,30.07,WNW,292,3.0,6.0,68,0.00,,CLR,0.00,761.00,VWS V14.01,2013-08-20 15:04:00,
2013-08-20 11:09:00,78.0,66.2,30.07,NW,313,0.0,7.0,67,0.00,,CLR,0.00,770.00,VWS V14.01,2013-08-20 15:09:00,
2013-08-20 11:14:00,78.4,66.1,30.07,North,360,5.0,8.0,66,0.00,,CLR,0.00,779.00,VWS V14.01,2013-08-20 15:14:00,
2013-08-20 11:19:00,78.6,66.3,30.07,North,355,0.0,9.0,66,0.00,,CLR,0.00,786.00,VWS V14.01,2013-08-20 15:19:00,
2013-08-20 11:24:00,79.3,67.4,30.07,NNW,327,1.0,8.0,67,0.00,,CLR,0.00,795.00,VWS V14.01,2013-08-20 15:24:00,
2013-08-20 11:30:00,78.9,65.2,30.07,NNW,331,0.0,10.0,63,0.00,,CLR,0.00,803.00,VWS V14.01,2013-08-20 15:30:00,
2013-08-20 11:35:00,78.4,65.7,30.07,NNW,329,0.0,5.0,65,0.00,,CLR,0.00,807.00,VWS V14.01,2013-08-20 15:35:00,
2013-08-20 11:40:00,79.0,65.8,30.07,NW,325,1.0,9.0,64,0.00,,CLR,0.00,817.00,VWS V14.01,2013-08-20 15:40:00,
2013-08-20 11:45:00,79.1,65.9,30.07,NW,304,4.0,8.0,64,0.00,,CLR,0.00,826.00,VWS V14.01,2013-08-20 15:45:00,
2013-08-20 11:58:00,79.6,66.4,30.07,NNW,341,0.0,6.0,64,0.00,,CLR,0.00,851.00,VWS V14.01,2013-08-20 15:58:00,
2013-08-20 12:03:00,79.6,65.9,30.07,NW,321,1.0,5.0,63,0.00,,CLR,0.00,860.00,VWS V14.01,2013-08-20 16:03:00,
2013-08-20 12:08:00,80.0,66.3,30.07,NW,312,1.0,9.0,63,0.00,,CLR,0.00,865.00,VWS V14.01,2013-08-20 16:08:00,
2013-08-20 12:13:00,80.2,66.5,30.07,NW,323,8.0,11.0,63,0.00,,CLR,0.00,867.00,VWS V14.01,2013-08-20 16:13:00,
2013-08-20 12:18:00,80.3,66.1,30.07,NNW,345,2.0,8.0,62,0.00,,CLR,0.00,867.00,VWS V14.01,2013-08-20 16:18:00,
2013-08-20 12:23:00,80.5,65.8,30.07,NW,321,0.0,9.0,61,0.00,,CLR,0.00,868.00,VWS V14.01,2013-08-20 16:23:00,
2013-08-20 12:29:00,81.0,66.3,30.07,NNW,342,0.0,10.0,61,0.00,,CLR,0.00,868.00,VWS V14.01,2013-08-20 16:29:00,
2013-08-20 12:34:00,81.2,66.0,30.07,NNW,344,3.0,8.0,60,0.00,,CLR,0.00,872.00,VWS V14.01,2013-08-20 16:34:00,
2013-08-20 12:38:00,81.4,67.1,30.07,NNW,336,0.0,8.0,62,0.00,,CLR,0.00,868.00,VWS V14.01,2013-08-20 16:38:00,
2013-08-20 12:43:00,81.7,66.0,30.06,NW,323,3.0,9.0,59,0.00,,CLR,0.00,874.00,VWS V14.01,2013-08-20 16:43:00,
2013-08-20 12:48:00,81.1,65.9,30.06,WNW,302,3.0,9.0,60,0.00,,CLR,0.00,868.00,VWS V14.01,2013-08-20 16:48:00,
2013-08-20 12:53:00,80.9,66.2,30.06,NNW,340,0.0,10.0,61,0.00,,CLR,0.00,870.00,VWS V14.01,2013-08-20 16:53:00,
2013-08-20 12:58:00,81.2,65.5,30.06,NW,326,2.0,11.0,59,0.00,,CLR,0.00,868.00,VWS V14.01,2013-08-20 16:58:00,
2013-08-20 13:03:00,81.0,65.3,30.06,North,355,2.0,8.0,59,0.00,,CLR,0.00,867.00,VWS V14.01,2013-08-20 17:03:00,
2013-08-20 13:08:00,81.2,65.5,30.06,NW,304,9.0,9.0,59,0.00,,CLR,0.00,865.00,VWS V14.01,2013-08-20 17:08:00,
2013-08-20 13:13:00,81.2,66.0,30.06,NNW,336,5.0,10.0,60,0.00,,CLR,0.00,865.00,VWS V14.01,2013-08-20 17:13:00,
2013-08-20 13:18:00,82.0,66.3,30.06,NNW,338,4.0,6.0,59,0.00,,CLR,0.00,858.00,VWS V14.01,2013-08-20 17:18:00,
2013-08-20 13:23:00,81.9,65.7,30.06,NW,311,5.0,9.0,58,0.00,,CLR,0.00,858.00,VWS V14.01,2013-08-20 17:23:00,
2013-08-20 13:28:00,82.1,65.4,30.06,NNW,338,1.0,11.0,57,0.00,,CLR,0.00,854.00,VWS V14.01,2013-08-20 17:28:00,
2013-08-20 13:33:00,82.5,65.8,30.06,NW,314,1.0,8.0,57,0.00,,CLR,0.00,849.00,VWS V14.01,2013-08-20 17:33:00,
2013-08-20 13:38:00,83.0,65.7,30.06,NW,323,2.0,9.0,56,0.00,,CLR,0.00,851.00,VWS V14.01,2013-08-20 17:38:00,
2013-08-20 13:43:00,82.7,65.4,30.05,North,9,1.0,9.0,56,0.00,,CLR,0.00,851.00,VWS V14.01,2013-08-20 17:43:00,
2013-08-20 13:48:00,83.4,65.0,30.05,North,360,5.0,6.0,54,0.00,,CLR,0.00,849.00,VWS V14.01,2013-08-20 17:48:00,
2013-08-20 13:53:00,83.0,64.1,30.05,NNW,336,2.0,8.0,53,0.00,,CLR,0.00,846.00,VWS V14.01,2013-08-20 17:53:00,
2013-08-20 13:58:00,83.6,65.7,30.05,West,272,1.0,4.0,55,0.00,,CLR,0.00,831.00,VWS V14.01,2013-08-20 17:58:00,
2013-08-20 14:03:00,83.9,66.0,30.05,NW,323,3.0,8.0,55,0.00,,CLR,0.00,828.00,VWS V14.01,2013-08-20 18:03:00,
2013-08-20 14:08:00,83.7,64.8,30.05,NW,311,0.0,8.0,53,0.00,,CLR,0.00,830.00,VWS V14.01,2013-08-20 18:08:00,
2013-08-20 14:13:00,84.2,64.7,30.05,NW,313,2.0,6.0,52,0.00,,CLR,0.00,823.00,VWS V14.01,2013-08-20 18:13:00,
2013-08-20 14:18:00,83.9,63.8,30.05,West,268,0.0,8.0,51,0.00,,CLR,0.00,814.00,VWS V14.01,2013-08-20 18:18:00,
2013-08-20 14:23:00,84.0,63.4,30.04,WNW,292,0.0,7.0,50,0.00,,CLR,0.00,810.00,VWS V14.01,2013-08-20 18:23:00,
2013-08-20 14:28:00,84.3,64.2,30.05,WNW,303,1.0,7.0,51,0.00,,CLR,0.00,805.00,VWS V14.01,2013-08-20 18:28:00,
2013-08-20 14:33:00,84.0,63.9,30.04,WNW,302,3.0,8.0,51,0.00,,CLR,0.00,802.00,VWS V14.01,2013-08-20 18:33:00,
2013-08-20 14:38:00,83.8,63.2,30.04,NNW,339,5.0,8.0,50,0.00,,CLR,0.00,786.00,VWS V14.01,2013-08-20 18:38:00,
2013-08-20 14:43:00,83.9,63.8,30.04,NW,317,6.0,7.0,51,0.00,,CLR,0.00,780.00,VWS V14.01,2013-08-20 18:43:00,
2013-08-20 14:48:00,83.9,63.3,30.04,West,281,0.0,6.0,50,0.00,,CLR,0.00,773.00,VWS V14.01,2013-08-20 18:48:00,
2013-08-20 14:53:00,84.2,64.1,30.04,WNW,296,0.0,7.0,51,0.00,,CLR,0.00,758.00,VWS V14.01,2013-08-20 18:53:00,
2013-08-20 14:58:00,84.6,63.9,30.04,West,277,1.0,8.0,50,0.00,,CLR,0.00,752.00,VWS V14.01,2013-08-20 18:58:00,
2013-08-20 15:03:00,84.5,63.3,30.04,West,272,0.0,8.0,49,0.00,,CLR,0.00,744.00,VWS V14.01,2013-08-20 19:03:00,
2013-08-20 15:08:00,84.1,63.5,30.03,WNW,298,7.0,7.0,50,0.00,,CLR,0.00,735.00,VWS V14.01,2013-08-20 19:08:00,
2013-08-20 15:13:00,84.2,63.0,30.03,NNW,337,0.0,8.0,49,0.00,,CLR,0.00,721.00,VWS V14.01,2013-08-20 19:13:00,
2013-08-20 15:18:00,84.4,63.8,30.04,WNW,286,1.0,6.0,50,0.00,,CLR,0.00,714.00,VWS V14.01,2013-08-20 19:18:00,
2013-08-20 15:23:00,84.3,63.1,30.04,WNW,297,0.0,8.0,49,0.00,,CLR,0.00,701.00,VWS V14.01,2013-08-20 19:23:00,
2013-08-20 15:28:00,84.1,62.9,30.04,NW,320,1.0,10.0,49,0.00,,CLR,0.00,686.00,VWS V14.01,2013-08-20 19:28:00,
2013-08-20 15:33:00,84.0,62.8,30.04,WNW,287,2.0,9.0,49,0.00,,CLR,0.00,675.00,VWS V14.01,2013-08-20 19:33:00,
2013-08-20 15:38:00,84.1,62.9,30.04,NW,323,5.0,8.0,49,0.00,,CLR,0.00,664.00,VWS V14.01,2013-08-20 19:38:00,
2013-08-20 15:43:00,83.8,62.0,30.03,NW,325,3.0,10.0,48,0.00,,CLR,0.00,647.00,VWS V14.01,2013-08-20 19:43:00,
2013-08-20 15:48:00,83.9,62.7,30.04,WNW,299,0.0,4.0,49,0.00,,CLR,0.00,640.00,VWS V14.01,2013-08-20 19:48:00,
2013-08-20 15:53:00,83.9,62.1,30.04,WNW,292,3.0,9.0,48,0.00,,CLR,0.00,624.00,VWS V14.01,2013-08-20 19:53:00,
2013-08-20 15:58:00,83.8,62.6,30.03,West,277,9.0,9.0,49,0.00,,CLR,0.00,612.00,VWS V14.01,2013-08-20 19:58:00,
2013-08-20 16:03:00,83.6,63.0,30.03,NW,311,0.0,5.0,50,0.00,,CLR,0.00,594.00,VWS V14.01,2013-08-20 20:03:00,
2013-08-20 16:08:00,83.7,62.5,30.03,WNW,300,2.0,9.0,49,0.00,,CLR,0.00,582.00,VWS V14.01,2013-08-20 20:08:00,
2013-08-20 16:13:00,83.7,62.5,30.03,NW,313,1.0,10.0,49,0.00,,CLR,0.00,570.00,VWS V14.01,2013-08-20 20:13:00,
2013-08-20 16:18:00,83.9,62.7,30.03,WNW,300,2.0,5.0,49,0.00,,CLR,0.00,555.00,VWS V14.01,2013-08-20 20:18:00,
2013-08-20 16:23:00,83.9,64.4,30.03,WNW,303,2.0,8.0,52,0.00,,CLR,0.00,540.00,VWS V14.01,2013-08-20 20:23:00,
2013-08-20 16:28:00,84.3,63.1,30.04,West,263,2.0,8.0,49,0.00,,CLR,0.00,526.00,VWS V14.01,2013-08-20 20:28:00,
2013-08-20 16:33:00,84.1,63.5,30.03,NW,304,0.0,5.0,50,0.00,,CLR,0.00,510.00,VWS V14.01,2013-08-20 20:33:00,
2013-08-20 16:38:00,83.9,62.7,30.03,NW,319,4.0,6.0,49,0.00,,CLR,0.00,497.00,VWS V14.01,2013-08-20 20:38:00,
2013-08-20 16:43:00,83.8,63.2,30.03,NW,321,1.0,6.0,50,0.00,,CLR,0.00,482.00,VWS V14.01,2013-08-20 20:43:00,
2013-08-20 16:48:00,83.7,62.5,30.03,NW,317,1.0,9.0,49,0.00,,CLR,0.00,462.00,VWS V14.01,2013-08-20 20:48:00,
2013-08-20 16:53:00,83.7,63.1,30.03,WNW,299,0.0,5.0,50,0.00,,CLR,0.00,448.00,VWS V14.01,2013-08-20 20:53:00,
2013-08-20 16:58:00,83.6,62.4,30.03,WNW,286,2.0,11.0,49,0.00,,CLR,0.00,436.00,VWS V14.01,2013-08-20 20:58:00,
2013-08-20 17:03:00,83.5,62.9,30.04,NW,307,5.0,7.0,50,0.00,,CLR,0.00,418.00,VWS V14.01,2013-08-20 21:03:00,
2013-08-20 17:08:00,83.3,62.7,30.04,West,277,1.0,7.0,50,0.00,,CLR,0.00,401.00,VWS V14.01,2013-08-20 21:08:00,
2013-08-20 17:24:00,83.2,62.7,30.04,NW,317,1.0,7.0,50,0.00,,CLR,0.00,348.00,VWS V14.01,2013-08-20 21:24:00,
2013-08-20 17:29:00,83.2,62.1,30.04,WNW,296,2.0,4.0,49,0.00,,CLR,0.00,330.00,VWS V14.01,2013-08-20 21:29:00,
2013-08-20 17:34:00,83.1,62.5,30.04,NNW,346,3.0,9.0,50,0.00,,CLR,0.00,315.00,VWS V14.01,2013-08-20 21:34:00,
2013-08-20 17:39:00,82.7,62.8,30.04,NW,317,0.0,5.0,51,0.00,,CLR,0.00,299.00,VWS V14.01,2013-08-20 21:39:00,
2013-08-20 17:44:00,82.8,62.8,30.04,WNW,292,1.0,8.0,51,0.00,,CLR,0.00,287.00,VWS V14.01,2013-08-20 21:44:00,
2013-08-20 17:49:00,82.4,63.0,30.04,West,263,1.0,6.0,52,0.00,,CLR,0.00,276.00,VWS V14.01,2013-08-20 21:49:00,
2013-08-20 17:54:00,82.2,65.5,30.04,West,273,4.0,8.0,57,0.00,,CLR,0.00,255.00,VWS V14.01,2013-08-20 21:54:00,
2013-08-20 17:59:00,81.3,67.1,30.04,NW,307,2.0,7.0,62,0.00,,CLR,0.00,243.00,VWS V14.01,2013-08-20 21:59:00,
2013-08-20 18:04:00,80.6,67.3,30.04,West,259,2.0,6.0,64,0.00,,CLR,0.00,223.00,VWS V14.01,2013-08-20 22:04:00,
2013-08-20 18:09:00,80.5,67.7,30.04,West,267,1.0,8.0,65,0.00,,CLR,0.00,207.00,VWS V14.01,2013-08-20 22:09:00,
2013-08-20 18:14:00,80.1,67.7,30.04,WSW,242,9.0,10.0,66,0.00,,CLR,0.00,192.00,VWS V14.01,2013-08-20 22:14:00,
2013-08-20 18:19:00,79.7,67.8,30.04,WSW,257,3.0,8.0,67,0.00,,CLR,0.00,176.00,VWS V14.01,2013-08-20 22:19:00,
2013-08-20 18:24:00,79.3,67.8,30.04,WSW,255,2.0,11.0,68,0.00,,CLR,0.00,160.00,VWS V14.01,2013-08-20 22:24:00,
2013-08-20 18:29:00,78.8,67.8,30.04,WSW,253,3.0,8.0,69,0.00,,CLR,0.00,144.00,VWS V14.01,2013-08-20 22:29:00,
2013-08-20 18:34:00,78.4,67.8,30.04,WSW,257,4.0,7.0,70,0.00,,CLR,0.00,128.00,VWS V14.01,2013-08-20 22:34:00,
2013-08-20 18:39:00,78.2,67.6,30.04,West,267,0.0,8.0,70,0.00,,CLR,0.00,116.00,VWS V14.01,2013-08-20 22:39:00,
2013-08-20 18:44:00,77.9,67.3,30.05,West,265,1.0,8.0,70,0.00,,CLR,0.00,104.00,VWS V14.01,2013-08-20 22:44:00,
2013-08-20 18:49:00,77.7,67.1,30.05,WNW,282,3.0,6.0,70,0.00,,CLR,0.00,88.00,VWS V14.01,2013-08-20 22:49:00,
2013-08-20 18:54:00,77.3,67.2,30.05,WSW,256,3.0,8.0,71,0.00,,CLR,0.00,74.00,VWS V14.01,2013-08-20 22:54:00,
2013-08-20 18:59:00,76.8,67.1,30.05,WSW,248,1.0,8.0,72,0.00,,CLR,0.00,62.00,VWS V14.01,2013-08-20 22:59:00,
2013-08-20 19:04:00,76.6,66.9,30.05,West,269,4.0,8.0,72,0.00,,CLR,0.00,49.00,VWS V14.01,2013-08-20 23:04:00,
2013-08-20 19:09:00,76.3,67.0,30.05,West,259,2.0,8.0,73,0.00,,CLR,0.00,39.00,VWS V14.01,2013-08-20 23:09:00,
2013-08-20 19:14:00,76.0,67.1,30.05,West,267,3.0,9.0,74,0.00,,CLR,0.00,32.00,VWS V14.01,2013-08-20 23:14:00,
2013-08-20 19:19:00,75.7,67.2,30.05,West,265,4.0,7.0,75,0.00,,CLR,0.00,25.00,VWS V14.01,2013-08-20 23:19:00,
2013-08-20 19:24:00,75.3,67.6,30.05,West,265,2.0,8.0,77,0.00,,CLR,0.00,18.00,VWS V14.01,2013-08-20 23:24:00,
2013-08-20 19:29:00,75.0,67.3,30.05,West,267,2.0,7.0,77,0.00,,CLR,0.00,12.00,VWS V14.01,2013-08-20 23:29:00,
2013-08-20 19:34:00,74.7,67.4,30.05,WSW,252,4.0,8.0,78,0.00,,CLR,0.00,9.00,VWS V14.01,2013-08-20 23:34:00,
2013-08-20 19:39:00,74.4,67.5,30.05,West,259,2.0,7.0,79,0.00,,CLR,0.00,5.00,VWS V14.01,2013-08-20 23:39:00,
2013-08-20 19:44:00,74.2,67.3,30.05,West,269,0.0,8.0,79,0.00,,CLR,0.00,0.00,VWS V14.01,2013-08-20 23:44:00,
2013-08-20 19:49:00,74.0,67.1,30.05,WSW,249,3.0,8.0,79,0.00,,CLR,0.00,0.00,VWS V14.01,2013-08-20 23:49:00,
2013-08-20 19:54:00,73.9,67.0,30.06,West,267,8.0,9.0,79,0.00,,CLR,0.00,0.00,VWS V14.01,2013-08-20 23:54:00,
2013-08-20 19:59:00,73.8,67.2,30.06,WNW,284,4.0,7.0,80,0.00,,CLR,0.00,0.00,VWS V14.01,2013-08-20 23:59:00,
2013-08-20 20:04:00,73.8,67.2,30.06,West,259,0.0,3.0,80,0.00,,CLR,0.00,0.00,VWS V14.01,2013-08-21 00:04:00,
2013-08-20 20:09:00,73.5,67.0,30.05,West,277,1.0,6.0,80,0.00,,CLR,0.00,0.00,VWS V14.01,2013-08-21 00:09:00,
2013-08-20 20:14:00,73.4,67.2,30.06,West,274,0.0,4.0,81,0.00,,CLR,0.00,0.00,VWS V14.01,2013-08-21 00:14:00,
2013-08-20 20:19:00,73.3,67.1,30.06,WSW,251,5.0,5.0,81,0.00,,CLR,0.00,0.00,VWS V14.01,2013-08-21 00:19:00,
2013-08-20 20:24:00,73.2,67.4,30.06,West,263,0.0,8.0,82,0.00,,CLR,0.00,0.00,VWS V14.01,2013-08-21 00:24:00,
2013-08-20 20:29:00,72.9,67.4,30.06,West,281,1.0,6.0,83,0.00,,CLR,0.00,0.00,VWS V14.01,2013-08-21 00:29:00,
2013-08-20 20:34:00,72.7,67.2,30.06,WSW,242,0.0,8.0,83,0.00,,CLR,0.00,0.00,VWS V14.01,2013-08-21 00:34:00,
2013-08-20 20:39:00,72.7,67.2,30.06,West,265,1.0,4.0,83,0.00,,CLR,0.00,0.00,VWS V14.01,2013-08-21 00:39:00,
2013-08-20 20:44:00,72.6,67.5,30.07,WNW,287,0.0,6.0,84,0.00,,CLR,0.00,0.00,VWS V14.01,2013-08-21 00:44:00,
2013-08-20 20:49:00,72.6,67.5,30.07,NW,306,3.0,8.0,84,0.00,,CLR,0.00,0.00,VWS V14.01,2013-08-21 00:49:00,
2013-08-20 20:54:00,72.6,67.5,30.07,West,272,3.0,7.0,84,0.00,,CLR,0.00,0.00,VWS V14.01,2013-08-21 00:54:00,
2013-08-20 20:59:00,72.5,67.7,30.07,WNW,283,6.0,7.0,85,0.00,,CLR,0.00,0.00,VWS V14.01,2013-08-21 00:59:00,
2013-08-20 21:04:00,72.4,67.6,30.07,West,271,0.0,7.0,85,0.00,,CLR,0.00,0.00,VWS V14.01,2013-08-21 01:04:00,
2013-08-20 21:09:00,72.4,67.6,30.07,West,268,2.0,6.0,85,0.00,,CLR,0.00,0.00,VWS V14.01,2013-08-21 01:09:00,
2013-08-20 21:14:00,72.4,67.6,30.07,WNW,284,0.0,6.0,85,0.00,,CLR,0.00,0.00,VWS V14.01,2013-08-21 01:14:00,
2013-08-20 21:19:00,72.3,67.5,30.08,WSW,256,9.0,9.0,85,0.00,,CLR,0.00,0.00,VWS V14.01,2013-08-21 01:19:00,
2013-08-20 21:24:00,72.2,67.4,30.08,WSW,240,9.0,9.0,85,0.00,,CLR,0.00,0.00,VWS V14.01,2013-08-21 01:24:00,
2013-08-20 21:29:00,72.2,67.4,30.08,West,276,0.0,8.0,85,0.00,,CLR,0.00,0.00,VWS V14.01,2013-08-21 01:29:00,
2013-08-20 21:34:00,72.2,67.4,30.08,NNW,328,3.0,8.0,85,0.00,,CLR,0.00,0.00,VWS V14.01,2013-08-21 01:34:00,
2013-08-20 21:39:00,72.2,67.4,30.08,NW,309,0.0,12.0,85,0.00,,CLR,0.00,0.00,VWS V14.01,2013-08-21 01:39:00,
2013-08-20 21:44:00,72.0,67.2,30.08,NW,307,0.0,3.0,85,0.00,,CLR,0.00,0.00,VWS V14.01,2013-08-21 01:44:00,
2013-08-20 21:49:00,72.0,67.2,30.08,NW,308,0.0,7.0,85,0.00,,CLR,0.00,0.00,VWS V14.01,2013-08-21 01:49:00,
2013-08-20 21:54:00,71.9,67.2,30.08,WNW,287,4.0,5.0,85,0.00,,CLR,0.00,0.00,VWS V14.01,2013-08-21 01:54:00,
2013-08-20 21:59:00,71.7,67.3,30.08,West,277,0.0,2.0,86,0.00,,CLR,0.00,0.00,VWS V14.01,2013-08-21 01:59:00,
2013-08-20 22:04:00,71.7,67.3,30.08,WNW,282,0.0,6.0,86,0.00,,CLR,0.00,0.00,VWS V14.01,2013-08-21 02:04:00,
2013-08-20 22:09:00,71.5,67.1,30.08,WNW,282,0.0,6.0,86,0.00,,CLR,0.00,0.00,VWS V14.01,2013-08-21 02:09:00,
2013-08-20 22:14:00,71.4,67.0,30.08,WNW,284,2.0,8.0,86,0.00,,CLR,0.00,0.00,VWS V14.01,2013-08-21 02:14:00,
2013-08-20 22:19:00,71.3,67.2,30.08,WNW,284,0.0,0.0,87,0.00,,CLR,0.00,0.00,VWS V14.01,2013-08-21 02:19:00,
2013-08-20 22:24:00,71.2,67.1,30.08,WNW,283,0.0,7.0,87,0.00,,CLR,0.00,0.00,VWS V14.01,2013-08-21 02:24:00,
2013-08-20 22:29:00,71.2,67.1,30.08,WNW,284,0.0,4.0,87,0.00,,CLR,0.00,0.00,VWS V14.01,2013-08-21 02:29:00,
2013-08-20 22:34:00,71.2,67.1,30.08,WNW,284,0.0,1.0,87,0.00,,CLR,0.00,0.00,VWS V14.01,2013-08-21 02:34:00,
2013-08-20 22:39:00,71.0,66.9,30.08,WNW,284,0.0,2.0,87,0.00,,CLR,0.00,0.00,VWS V14.01,2013-08-21 02:39:00,
2013-08-20 22:44:00,70.9,66.8,30.08,WNW,283,0.0,6.0,87,0.00,,CLR,0.00,0.00,VWS V14.01,2013-08-21 02:44:00,
2013-08-20 22:49:00,70.9,66.8,30.08,WNW,287,0.0,6.0,87,0.00,,CLR,0.00,0.00,VWS V14.01,2013-08-21 02:49:00,
2013-08-20 22:54:00,70.9,66.8,30.08,WNW,289,2.0,5.0,87,0.00,,CLR,0.00,0.00,VWS V14.01,2013-08-21 02:54:00,
2013-08-20 22:59:00,70.8,66.7,30.08,WNW,286,0.0,0.0,87,0.00,,CLR,0.00,0.00,VWS V14.01,2013-08-21 02:59:00,
2013-08-20 23:04:00,70.8,66.7,30.08,WNW,286,3.0,6.0,87,0.00,,,0.00,0.00,VWS V14.01,2013-08-21 03:04:00,
2013-08-20 23:09:00,70.7,67.0,30.08,WNW,296,0.0,5.0,88,0.00,,,0.00,0.00,VWS V14.01,2013-08-21 03:09:00,
2013-08-20 23:14:00,70.6,66.9,30.09,WNW,292,4.0,4.0,88,0.00,,,0.00,0.00,VWS V14.01,2013-08-21 03:14:00,
2013-08-20 23:19:00,70.6,66.9,30.09,WNW,292,0.0,4.0,88,0.00,,,0.00,0.00,VWS V14.01,2013-08-21 03:19:00,
2013-08-20 23:24:00,70.5,66.8,30.09,WNW,292,1.0,7.0,88,0.00,,,0.00,0.00,VWS V14.01,2013-08-21 03:24:00,
2013-08-20 23:29:00,70.4,66.7,30.09,WNW,292,0.0,5.0,88,0.00,,,0.00,0.00,VWS V14.01,2013-08-21 03:29:00,
2013-08-20 23:34:00,70.4,66.7,30.09,WNW,292,0.0,2.0,88,0.00,,,0.00,0.00,VWS V14.01,2013-08-21 03:34:00,
2013-08-20 23:39:00,70.4,66.7,30.09,WNW,291,0.0,3.0,88,0.00,,,0.00,0.00,VWS V14.01,2013-08-21 03:39:00,
2013-08-20 23:44:00,70.5,66.4,30.09,WNW,292,0.0,2.0,87,0.00,,,0.00,0.00,VWS V14.01,2013-08-21 03:44:00,
2013-08-20 23:49:00,70.4,66.3,30.09,WNW,292,0.0,0.0,87,0.00,,,0.00,0.00,VWS V14.01,2013-08-21 03:49:00,
2013-08-20 23:54:00,70.4,66.3,30.09,WNW,292,0.0,0.0,87,0.00,,,0.00,0.00,VWS V14.01,2013-08-21 03:54:00,
2013-08-20 23:59:00,70.4,66.3,30.09,WNW,292,0.0,0.0,87,0.00,,,0.00,0.00,VWS V14.01,2013-08-21 03:59:00,